Change the Weather History Date:

Thursday, October 13, 2011

  Actual Average Record
Temperature  
Mean Temperature 70 °F -  
Max Temperature 80 °F 77 °F 91 °F (1999)
Min Temperature 59 °F 57 °F 48 °F (2006)
Cooling Degree Days 4    
Growing Degree Days 20 (Base 50)    
Moisture  
Dew Point 48 °F    
Average Humidity 50    
Maximum Humidity 75    
Minimum Humidity 25    
Precipitation  
Precipitation 0.00 in - - ()
Sea Level Pressure  
Sea Level Pressure 29.93 in    
Wind  
Wind Speed 7 mph (NNW)    
Max Wind Speed 12 mph    
Max Gust Speed 18 mph    
Visibility 10 miles    
Events      
Averages and records for this station are not official NWS values.
T = Trace of Precipitation, MM = Missing Value Source: NWS Daily Summary

Daily Weather History Graph

Daily Weather History Graph

Search for Another Location

Airport or City:

Trip Planner

Search our weather history database for the weather conditions in past years. The results will help you decide how hot, cold, wet, or windy it might be!

Date:

Astronomy

Oct. 13, 2011 Rise Set
Actual Time 7:29 AM CDT 6:56 PM CDT
Civil Twilight 7:05 AM CDT 7:21 PM CDT
Nautical Twilight 6:36 AM CDT 7:50 PM CDT
Astronomical Twilight 6:07 AM CDT 8:18 PM CDT
Moon 7:42 PM CDT (10/13) 8:54 AM CDT (10/13)
Length of Visible Light 12h 16m
Length of Day
11h 27m
Full, 98% of the Moon is Illuminated
Oct 13
Full
Oct 19
Last Quarter
Oct 26
New
Nov 2
First Quarter
Nov 10
Full

Hourly Weather History & Observations

Time (CDT) Temp. Dew Point Humidity Pressure Visibility Wind Dir Wind Speed Gust Speed Precip Events Conditions
12:53 AM 70.0 °F 61.0 °F 73% 29.87 in 10.0 mi NNW 6.9 mph - N/A   Clear
1:53 AM 69.1 °F 57.0 °F 65% 29.88 in 10.0 mi NNW 5.8 mph - N/A   Clear
2:53 AM 66.9 °F 55.9 °F 68% 29.88 in 10.0 mi North 5.8 mph - N/A   Clear
3:53 AM 66.0 °F 53.1 °F 63% 29.90 in 10.0 mi NW 5.8 mph - N/A   Clear
4:53 AM 64.9 °F 52.0 °F 63% 29.91 in 10.0 mi WNW 6.9 mph - N/A   Clear
5:53 AM 62.1 °F 51.1 °F 67% 29.93 in 10.0 mi NW 5.8 mph - N/A   Clear
6:53 AM 59.0 °F 50.0 °F 72% 29.93 in 10.0 mi NNW 5.8 mph - N/A   Clear
7:53 AM 61.0 °F 48.0 °F 62% 29.94 in 10.0 mi NNW 6.9 mph - N/A   Clear
8:53 AM 64.0 °F 48.0 °F 56% 29.95 in 10.0 mi NW 9.2 mph - N/A   Clear
9:53 AM 68.0 °F 48.2 °F 49% 29.99 in 10.0 mi NNW 9.2 mph 16.1 mph N/A   Clear
10:53 AM 71.1 °F 46.0 °F 41% 29.98 in 10.0 mi North 11.5 mph 18.4 mph N/A   Clear
11:53 AM 75.0 °F 44.1 °F 33% 29.99 in 10.0 mi NNE 11.5 mph - N/A   Clear
12:53 PM 75.2 °F 42.8 °F 31% 30.00 in 10.0 mi North 11.5 mph - N/A   Clear
1:53 PM 77.0 °F 42.8 °F 29% 29.96 in 10.0 mi North 9.2 mph 18.4 mph N/A   Clear
2:53 PM 78.8 °F 42.8 °F 28% 29.93 in 10.0 mi WNW 10.4 mph - N/A   Partly Cloudy
3:53 PM 80.1 °F 41.0 °F 25% 29.91 in 10.0 mi NNW 8.1 mph 17.3 mph N/A   Partly Cloudy
4:53 PM 80.1 °F 41.0 °F 25% 29.89 in 10.0 mi NNW 11.5 mph - N/A   Partly Cloudy
5:53 PM 79.0 °F 41.0 °F 26% 29.88 in 10.0 mi NNW 9.2 mph - N/A   Partly Cloudy
6:53 PM 75.2 °F 42.8 °F 31% 29.89 in 10.0 mi NNW 4.6 mph - N/A   Partly Cloudy
7:53 PM 73.0 °F 46.0 °F 38% 29.89 in 10.0 mi Calm Calm - N/A   Partly Cloudy
8:53 PM 68.0 °F 51.1 °F 55% 29.91 in 10.0 mi Calm Calm - N/A   Clear
9:53 PM 63.0 °F 52.0 °F 67% 29.92 in 10.0 mi Calm Calm - N/A   Clear
10:53 PM 62.6 °F 51.8 °F 68% 29.94 in 10.0 mi Calm Calm - N/A   Clear
11:53 PM 60.1 °F 52.0 °F 75% 29.94 in 10.0 mi Calm Calm - N/A   Clear